Погода Варандей

Погода Варандей : погода сейчас, прогноз погоды и архив. Всё, что Вы хотите узнать о погоде Варандей!

Хотите узнать прогноз погоды Варандей? Тогда Вам сюда: Погода Варандей

Поиск расширенной информации на нашем сайте:

Другие новости

Новости СМИ2

Главная страница сайта

Новости сайта

02.10.2013

Напоминаем, что на нашем новом сайте вы можете получить высокодетализированные прогнозы погоды по пунктам России, СНГ и мира (включающие важные для авиации метеовеличины, такие как направление и скорость ветра, видимость, явления погоды, количество и форма облачности, нижняя и верхняя граница облачности), а также ознакомиться с разнообразными материалами по авиационной метеорологии и подборкой полезных ссылок на эту тему.

Сайт Метеоцентр.Азия посвящён разработке технологий оптимизации авиаметеорологического обслуживания, включая проектирование и перспективное создание нескольких автоматизированных авиаметеорологических систем:
- система выпуска высокодетальных прогностических карт явлений погоды для нижнего воздушного пространства по России и ближнему зарубежью;
- система верификации прогнозов TAF (выпускаемых синоптиками официальных АМСГ РФ и ближнего зарубежья) и AUTOTAF (выпускаемых сайтом Метеоцентр.Азия) - выявление ошибок, онлайн-сопоставление с фактической погодой METAR, автоматическое внесение коррективов в прогнозы при резком отклонении фактической погоды от прогноза, подсчёт оправдываемости прогнозов по элементам и в целом;
- система обработки, анализа и отображения авиаметеорологической информации для применения провайдерами метеорологической информации.

Рекомендуем: туры в Маврикий на 10 дней на 2017 год здесь

Погода Варандей - сегодня

Время (UTC), дата Ветер
(°,м/с) 
Видим.   Явления Облачность Т
(°С)
Тd
(°С)
f(%) Тe
(°С)
Pmin
(гПа)
dP
(гПа)
Po
(мм)
O2
(г/м3)
Тmin Tmax R s Состояние
почвы
09 25.04.17 230 (ЮЗ) 0500 м  туман  ?/?  
-4.4 -6.4 86 -4  1016.7  762  313           
12 25.04.17 180 (Ю) 0200 м  туман  ?/?  
-8.4 -9.4 92 -8  1017.1  0.4  762  318           
15 25.04.17 160 (Ю) 0200 м  туман  ?/?  
-11.4 -12.7 90 -11  1017.3  0.2  762  322    -4.2       
18 25.04.17 190 (Ю) 0200 м  переохл. туман  ?/?  
-16.6 -18.4 86 -17  1017.7  0.4  763  329           
21 25.04.17 210 (ЮЗ) 0200 м  переохл. туман  ?/?  
-18.5 -20.5 84 -23  1017.9  0.2  763  331           
00 26.04.17 210 (ЮЗ) 10 км  в посл. час туман  6/6 2000 м средняя 
[As op]
-19.2 -21.3 83 -23  1019.2  1.3  764  333           
03 26.04.17 220 (ЮЗ) 20000 м    6/4 2000 м средняя, верхняя 
[Ac trans|Cc]
-16.6 -18.5 85 -17  1020.6  1.4  765  330  -19.8      115  неравномерный
сухой снег
100% 
06 26.04.17 210 (ЮЗ) 20000 м    6/0 верхняя 
[Cs]
-11.8 -13.5 87 -17  1021.5  0.9  765  324           
09 26.04.17 210 (ЮЗ) 20000 м    3/0 верхняя 
[Cc]
-8.2 -10.2 85 -12  1022.9  1.4  767  319           
12 26.04.17 190 (Ю) 20000 м    3/0 верхняя 
[Cc]
-7.8 -9.7 86 -11  1023.3  0.4  767  319           
15 26.04.17 190 (Ю) 20000 м    6/0 верхняя 
[Cs]
-11.8 -13.8 85 -15  1023.2  -0.1  767  324    -6.9       
18 26.04.17 140 (ЮВ) 20000 м    3/0 верхняя 
[Cs]
-13.6 -16.6 78 -18  1023.1  -0.1  767  327           
21 26.04.17 090 (В) 20000 м    ясно 
-19.9 -22.2 82 -25  1022.5  -0.6  766  335           
00 27.04.17 100 (В) 20000 м    ясно 
-18.2 -20 86 -23  1020.9  -1.6  765  332           
03 27.04.17 080 (В) 20000 м    4/0 верхняя 
[Cs]
-17.4 -19.2 86 -24  1018.7  -2.2  763  330  -21.2      115  неравномерный
сухой снег
100% 
06 27.04.17 080 (В) 9{11}  20000 м  позёмок  9/0 верхняя 
[Cs]
-12.7 -14.2 88 -20  1015.8  -2.9  761  323           
09 27.04.17 080 (В) 11{15}  10 км  позёмок  10/10 2000 м 
[Ns]
-7 -9.4 83 -14  1010.9  -4.9  758  314           
12 27.04.17 080 (В) 12{16}  10 км  позёмок  10/10 2000 м 
[Ns]
-6 -7.7 88 -13  1007.1  -3.8  755  312           
15 27.04.17 080 (В) 12{16}  0200 м  снег  10/10 2000 м 
[Ns]
-4.8 -5.6 94 -11  1003.3  -3.8  752  309    -4.8     
18 27.04.17 190 (Ю) 5{16}  4000 м  слаб. снег  10/10 180 м 
[Frnb|Ns]
-0.7 -1.3 96 -4  1001.4  -1.8  750  303           
21 27.04.17 210 (ЮЗ) 9{12}  20000 м  слаб. снег  10/10 200 м 
[Frnb|Ns]
-0.9 -1.3 97 -6  1001  -0.4  750  303           
00 28.04.17 210 (ЮЗ) 4{11}  20000 м  {снег}  9/9 360 м 
[Sc]
-3.2 -3.7 96 -6  1000.8  0.3  750  306           
03 28.04.17 220 (ЮЗ) н/о    н/о 
-3.7 -4.3 96 -8  1000.8  750  307  -4.8         
06 28.04.17 210 (ЮЗ) н/о    н/о 
-3.2 -3.8 96 -7  1001  0.2  750  306           
09 28.04.17 350 (С) 10{13}  10 км  позёмок  9/9 330 м 
[Sc]
-3.7 -4.5 94 -9  1002.9  1.9  752  307           
Время (UTC), дата Ветер
(°,м/с) 
Видим.   Явления Облачность Т
(°С)
Тd
(°С)
f(%) Тe
(°С)
Pmin
(гПа)
dP
(гПа)
Po
(мм)
O2
(г/м3)
Тmin Tmax R s Состояние
почвы

Для получения пояснительной информации подведите курсор к названию столбца.

ПОГОДА Варандей - архив

Всё, что Вы хотите узнать о погоде Варандей - удобно и подробно!

Выберите нужную дату (начиная с 1 января 2015* года) и нажмите кнопку "Найти".
Будут отображены архивные сводки погоды по пункту Варандей, начиная с указанной даты.


Отображать данные в формате CSV (для использования в таблицах Excel)


Внимание! Наш архив погоды предназначен исключительно для личного некоммерческого использования в познавательных целях. Если Вам необходимы официальные справки о состоянии погоды (для производственных, юридических, коммерческих и т.п. целей), обращайтесь в органы Росгидромета.

*Примечание: данная дата относится к архиву по метеостанциям СССР (Россия, СНГ, Балтия).
Архив по метеостанциям Зарубежной Европы и Азии (кроме Китая) хранится 10 дней, по другим регионам земного шара (Китай, Африка, Америка, Австралия, Океания) - 1 день.

Варандей - район местоположения метеостанции


Название, широта, долгота, высота метеостанции:
Варандей 68.8°ш. 58°д. 5 м над ур. моря [Российская Федерация]

Дополнительная информация

В oтличие oт бoльшинства пoгoдных сайтoв мы публикуем пoдрoбную метеoинфoрмацию в детальнoм прoфессиoнальнoм фoрмате.

Характеристики температуры и влажнoсти вoздуха измеряются на высoте 2 м в тени вдали oт зданий и деревьев.
Скoрoсть ветра измеряется на высoте 10 м (на урoвне рoста челoвека скoрoсть ветра ниже в 1.5-2 раза). Если метеoстанция нахoдится в гoрoде или в лесу, тo скoрoсть ветра занижена на 2-4 м/с пo сравнению с oткрытым местoм. Скoрoсть ветра над акватoриями крупных рек и oзёр, а также на вершинах хoлмoв на 2-5 м/с выше, чем в oбычных услoвиях.
Атмoсфернoе давление в разных тoчках местнoсти мoжет значительнo oтличаться oт давления на метеoстанции, в зависимoсти oт услoвий рельефа (при пoдъёме на 10 м давление пoнижается примернo на 1 мм рт.ст.).